Regional Weather Roundup
Issued by NWS

Home | Current Version | Previous Version | Graphics & Text | Print | Product List | Glossary On
Versions: 1 2 3 4 5 6 7 8 9 10 11 12 13 14 15 16 17 18 19 20 21 22 23 24 25 26 27 28 29 30 31 32 33 34 35 36 37 38 39 40 41 42 43 44 45 46 47 48 49 50
000
ASUS43 KIND 110359
RWRIN

WEATHER ROUNDUP FOR INDIANA
NATIONAL WEATHER SERVICE INDIANAPOLIS IN
1100 PM EST SUN DEC 10 2017

NOTE: "FAIR" INDICATES FEW OR NO CLOUDS BELOW 12,000 FEET WITH NO
SIGNIFICANT WEATHER AND/OR OBSTRUCTIONS TO VISIBILITY.

* - STATION DOES NOT REPORT WEATHER SUCH AS PRECIPITATION OR FOG.

+ - STATION NOT QUALITY CONTROLLED BY THE NATIONAL WEATHER SERVICE.
    USE DATA WITH CAUTION...ESPECIALLY DEWPOINT AND RELATIVE
    HUMIDITY OBSERVATIONS.

INZ001>003-010>013-019-020-110500-
NORTHWEST INDIANA

CITY           SKY/WX    TMP DP  RH WIND       PRES   REMARKS
GARY /AIRPORT/ MOCLDY    32  19  59 NW12      30.10R WCI  23
MONTICELLO +   CLEAR     26  19  76 NW8       30.07S WCI  17

$$

LMZ046-743>745-110500-
SOUTHERN LAKE MICHIGAN

STATION/POSITION TIME  TEMP    WIND        PRES    WAVE
                       AIR SEA DIR/SP/G            HT
                 (UTC) (F)     (DEG/KT/KT) (MB)    (FT)
BURNS HARBOR     0340   31     330/ 10/ 18 1018.6S
MICHIGAN CITY    0330   31     310/ 15/ 18   N/A

$$

INZ004-005-014>016-021>024-110500-
NORTH CENTRAL INDIANA

CITY           SKY/WX    TMP DP  RH WIND       PRES   REMARKS
GOSHEN         CLOUDY    30  24  78 NW10      30.03R WCI  21
SOUTH BEND     CLOUDY    29  23  78 NW7       30.05R WCI  22

$$

INZ006>009-017-018-025>027-110500-
NORTHEAST INDIANA

CITY           SKY/WX    TMP DP  RH WIND       PRES   REMARKS
FORT WAYNE     CLOUDY    32  24  72 NW8       30.03R WCI  25
KENDALLVILLE + CLOUDY    30  24  80 NW5       30.01R WCI  25

$$

INZ028-029-035-036-043>045-051>053-110500-
WEST CENTRAL INDIANA

CITY           SKY/WX    TMP DP  RH WIND       PRES   REMARKS
LAFAYETTE      CLEAR     27  20  75 NW5       30.09R WCI  22
TERRE HAUTE    CLEAR     30  21  69 NW5       30.12R WCI  25

$$

INZ030>032-037>040-046>048-054>057-064-065-110500-
CENTRAL INDIANA

CITY           SKY/WX    TMP DP  RH WIND       PRES   REMARKS
INDIANAPOLIS   CLEAR     29  21  72 NW9       30.08R WCI  20
-EAGLE CREEK   CLEAR     30  21  69 NW9       30.07R WCI  22
KOKOMO +       CLOUDY    31  25  78 NW12      30.06S WCI  22
MT COMFORT *+  CLEAR     28  25  86 NW9       30.07R WCI  20
SHELBYVILLE    CLEAR     31  21  66 NW8       30.06R WCI  23

$$

INZ033-034-041-042-049-050-058-059-110500-
EAST CENTRAL INDIANA

CITY           SKY/WX    TMP DP  RH WIND       PRES   REMARKS
MUNCIE         CLOUDY    32  23  69 N8        30.04R WCI  25
RICHMOND +     CLEAR     28  21  74 W12       30.01S WCI  18

$$

INZ060-061-067>069-081>083-085>088-110500-
SOUTHWEST INDIANA

CITY           SKY/WX    TMP DP  RH WIND       PRES   REMARKS
EVANSVILLE     CLEAR     39  27  62 NW5       30.14R WCI  36
HUNTINGBURG +  CLEAR     33  25  72 NW6       30.13R WCI  28

$$

INZ062-063-066-070>080-084-089>092-110500-
SOUTH CENTRAL AND SOUTHEAST INDIANA

CITY           SKY/WX    TMP DP  RH WIND       PRES   REMARKS
BLOOMINGTON    CLEAR     33  22  63 NW5       30.10R WCI  29
SEYMOUR +      CLEAR     30  21  69 W7        30.09R WCI  23

$$





USA.gov is the U.S. government's official web portal to all federal, state and local government web resources and services.